This is the latest recevied weather packets stored in our database for station/object N5DGC. If no packets are shown the sender has not sent any weather packets the latest 10 day(s).
| Time | Temp. | Humidity | Pressure | Rain* | Wind** | Luminosity | Snow |
|---|---|---|---|---|---|---|---|
| 1788482083 | 28.33° C | 33% | 1237 hPa | 0 mm | - | 35 W/m² | - |
| 1788481778 | 28.89° C | 33% | 1237.2 hPa | 0 mm | - | 37 W/m² | - |
| 1788481475 | 29.44° C | 32% | 1237.3 hPa | 0 mm | - | 43 W/m² | - |
| 1788481173 | 30° C | 31% | 1237.3 hPa | 0 mm | - | 34 W/m² | - |
| 1788480869 | 30° C | 27% | 1237.2 hPa | 0 mm | - | 21 W/m² | - |
| 1788480563 | 30° C | 27% | 1236.9 hPa | 0 mm | - | 17 W/m² | - |
| 1788480263 | 30.56° C | 26% | 1236.9 hPa | 0 mm | - | 25 W/m² | - |
| 1788479958 | 30.56° C | 26% | 1236.8 hPa | 0 mm | - | 43 W/m² | - |
| 1788479654 | 30.56° C | 26% | 1236.8 hPa | 0 mm | - | 72 W/m² | - |
| 1788479354 | 30.56° C | 26% | 1236.8 hPa | 0 mm | - | 98 W/m² | - |
| 1788479049 | 30.56° C | 26% | 1236.8 hPa | 0 mm | - | 97 W/m² | - |
| 1788478746 | 31.11° C | 26% | 1236.7 hPa | 0 mm | - | 100 W/m² | - |
| 1788478442 | 31.11° C | 26% | 1236.8 hPa | 0 mm | - | 125 W/m² | - |
| 1788478141 | 31.11° C | 26% | 1236.8 hPa | 0 mm | - | 135 W/m² | - |
| 1788477837 | 31.67° C | 26% | 1236.7 hPa | 0 mm | - | 149 W/m² | - |
| 1788477536 | 31.67° C | 26% | 1236.7 hPa | 0 mm | - | 164 W/m² | - |
| 1788477231 | 31.67° C | 26% | 1236.8 hPa | 0 mm | - | 176 W/m² | - |
| 1788476927 | 31.67° C | 26% | 1236.7 hPa | 0 mm | - | 178 W/m² | - |
| 1788476621 | 31.67° C | 25% | 1236.9 hPa | 0 mm | - | 167 W/m² | - |
| 1788476318 | 32.22° C | 25% | 1237 hPa | 0 mm | - | 162 W/m² | - |
| 1788476013 | 32.22° C | 25% | 1237 hPa | 0 mm | - | 190 W/m² | - |
| 1788475710 | 32.22° C | 25% | 1236.8 hPa | 0 mm | - | 179 W/m² | - |
| 1788475406 | 32.78° C | 24% | 1237.2 hPa | 0 mm | - | 172 W/m² | - |
| 1788475101 | 33.33° C | 24% | 1236.8 hPa | 0 mm | - | 236 W/m² | - |
| 1788474800 | 32.78° C | 25% | 1237 hPa | 0 mm | - | 298 W/m² | - |
* Rain latest hour (hover to see other rain measurements)
** Current wind speed in m/s (hover to see current wind gust speed)